sat.trackr.live / text

‹ back to catalog

CENTISPACE-2 S1

NORAD 68350 · 2026-060A

PAYLOAD ACTIVE UNKNOWN

§ Identity

Operator
Country
PRC
Launch date
2026-03-22
Launch site
YSLA
Launch vehicle
Mass (kg)
RCS (m²)

External: N2YO · Heavens-Above · Gunter

§ Orbital elements

Epoch: 2026-05-25T09:17:02.202720Z

Period
97.77 min
Inclination
54.9795°
Eccentricity
0.0010637
Mean motion
14.72821798 rev/d
Perigee alt
644.6 km
Apogee alt
659.6 km
Semi-major
7,030.2 km
B*
7.6591e-5
RAAN
129.1423°
Arg perigee
57.9923°
Mean anomaly
302.2108°
Rev number
940

§ Raw data

CENTISPACE-2 S11 68350U 26060A   26145.38683105  .00000289  00000+0  76591-4 0  99982 68350  54.9795 129.1423 0010637  57.9923 302.2108 14.72821798  9405

JSON: /api/v1/satellites/68350 · /tle

For live sub-satellite position, see the globe view (requires WebGL).

§ Visibility from observer

Set your observer location to see the next 7 days of passes ≥ 10°. The values pass through the URL so the page stays shareable.

No JS? Fill the form by hand. The geolocation button needs JavaScript.